Weather History for Deadhorse, AK

Change the Weather History Date:

Wednesday, October 9, 2013

  Actual Average Record
Temperature  
Mean Temperature 26 °F -  
Max Temperature 28 °F 21 °F 33 °F (1989)
Min Temperature 24 °F 12 °F -6 °F (1986)
Degree Days  
Heating Degree Days 39    
Moisture  
Dew Point 25 °F    
Average Humidity 93    
Maximum Humidity 100    
Minimum Humidity 88    
Precipitation  
Precipitation 0.00 in - - ()
Sea Level Pressure  
Sea Level Pressure 29.16 in    
Wind  
Wind Speed 11 mph (SW)    
Max Wind Speed 22 mph    
Max Gust Speed -    
Visibility 6 miles    
Events Snow    
Averages and records for this station are not official NWS values.
T = Trace of Precipitation, MM = Missing Value Source: NWS Daily Summary

Daily Weather History Graph

Daily Weather History Graph

Search for Another Location

Airport:

Trip Planner

Search our weather history database for the weather conditions in past years. The results will help you decide how hot, cold, wet, or windy it might be!

Date:

Astronomy

Oct. 09, 2013 Rise Set
Actual Time 8:44 AM AKDT 6:35 PM AKDT
Civil Twilight 7:42 AM AKDT 7:37 PM AKDT
Nautical Twilight 6:30 AM AKDT 8:48 PM AKDT
Astronomical Twilight 5:12 AM AKDT 10:05 PM AKDT
Moon 5:32 PM AKDT (10/9) 6:39 PM AKDT (10/9)
Length of Visible Light 11h 55m
Length of Day
9h 51m
Waxing Crescent, 27% of the Moon is Illuminated
Oct 9
Waxing Crescent
Oct 11
First Quarter
Oct 18
Full
Oct 26
Last Quarter
Nov 3
New

Hourly Weather History & Observations

Time (AKDT) Temp. Windchill Dew Point Humidity Pressure Visibility Wind Dir Wind Speed Gust Speed Precip Events Conditions
12:53 AM 28.0 °F 24.2 °F 27.0 °F 96% 29.02 in 7.0 mi East 3.5 mph - N/A   Overcast
1:53 AM 26.1 °F - 25.0 °F 96% 29.01 in 10.0 mi Calm Calm - N/A   Overcast
2:53 AM 25.0 °F - 23.0 °F 92% 29.01 in 10.0 mi Calm Calm - N/A   Overcast
3:53 AM 26.1 °F - 24.1 °F 92% 29.00 in 10.0 mi Calm Calm - N/A   Overcast
4:53 AM 26.1 °F 19.4 °F 24.1 °F 92% 29.02 in 4.0 mi SW 5.8 mph - 0.00 in Snow Light Snow
5:14 AM 26.6 °F 19.1 °F 24.8 °F 93% 29.02 in 2.5 mi SW 6.9 mph - 0.00 in Snow Light Snow
5:53 AM 26.1 °F 17.6 °F 25.0 °F 96% 29.03 in 2.0 mi WSW 8.1 mph - 0.00 in   Overcast
6:00 AM 26.6 °F 17.5 °F 24.8 °F 93% 29.02 in 1.8 mi WSW 9.2 mph - N/A   Overcast
6:07 AM 26.6 °F 17.5 °F 24.8 °F 93% 29.02 in 2.5 mi WSW 9.2 mph - N/A   Overcast
6:53 AM 27.0 °F 16.7 °F 26.1 °F 96% 29.04 in 0.8 mi WSW 11.5 mph - N/A   Overcast
7:33 AM 26.6 °F 14.7 °F 24.8 °F 93% 29.05 in 2.0 mi WSW 15.0 mph - N/A   Overcast
7:53 AM 26.1 °F 14.0 °F 24.1 °F 92% 29.06 in 5.0 mi WSW 15.0 mph - N/A   Overcast
8:53 AM 25.0 °F 11.3 °F 23.0 °F 92% 29.08 in 10.0 mi SW 18.4 mph - N/A   Overcast
9:15 AM 24.8 °F 12.4 °F 24.8 °F 100% 29.08 in 3.0 mi SW 15.0 mph - N/A   Overcast
9:17 AM 24.8 °F 11.9 °F 24.8 °F 100% 29.08 in 1.0 mi SW 16.1 mph - N/A   Overcast
9:27 AM 26.6 °F 14.3 °F 24.8 °F 93% 29.09 in 0.8 mi SW 16.1 mph - N/A   Overcast
9:53 AM 26.1 °F 12.7 °F 24.1 °F 92% 29.10 in 0.8 mi SW 18.4 mph - N/A   Mist
10:24 AM 26.6 °F 13.4 °F 24.8 °F 93% 29.11 in 1.0 mi SW 18.4 mph - N/A   Overcast
10:53 AM 26.1 °F 13.1 °F 25.0 °F 96% 29.13 in 1.5 mi SW 17.3 mph - N/A   Overcast
11:00 AM 26.6 °F 13.8 °F 24.8 °F 93% 29.13 in 2.0 mi SW 17.3 mph - N/A   Overcast
11:16 AM 26.6 °F 13.4 °F 26.6 °F 100% 29.13 in 2.0 mi SW 18.4 mph - N/A   Overcast
11:23 AM 26.6 °F 13.4 °F 26.6 °F 100% 29.14 in 7.0 mi SSW 18.4 mph - N/A   Overcast
11:53 AM 26.1 °F 13.1 °F 25.0 °F 96% 29.16 in 7.0 mi SSW 17.3 mph - N/A   Overcast
12:18 PM 26.6 °F 13.8 °F 24.8 °F 93% 29.16 in 10.0 mi SW 17.3 mph - N/A   Overcast
12:53 PM 27.0 °F 14.3 °F 25.0 °F 92% 29.19 in 10.0 mi SW 17.3 mph - N/A   Overcast
1:53 PM 28.0 °F 14.6 °F 25.0 °F 88% 29.22 in 10.0 mi SSW 20.7 mph - N/A   Overcast
2:53 PM 28.0 °F 15.7 °F 25.0 °F 88% 29.25 in 10.0 mi SSW 17.3 mph - N/A   Overcast
3:53 PM 28.0 °F 15.7 °F 25.0 °F 88% 29.26 in 10.0 mi SW 17.3 mph - N/A   Overcast
4:53 PM 28.0 °F 16.1 °F 26.1 °F 92% 29.29 in 10.0 mi SW 16.1 mph - N/A   Overcast
5:53 PM 28.9 °F 17.3 °F 26.1 °F 89% 29.31 in 10.0 mi SW 16.1 mph - N/A   Overcast
6:53 PM 28.9 °F 16.9 °F 26.1 °F 89% 29.32 in 10.0 mi SW 17.3 mph - N/A   Overcast
7:53 PM 28.9 °F 16.9 °F 26.1 °F 89% 29.34 in 8.0 mi SSW 17.3 mph - 0.00 in Snow Light Snow
8:31 PM 28.4 °F 15.8 °F 26.6 °F 93% 29.34 in 5.0 mi SW 18.4 mph - 0.00 in Snow Light Snow
8:53 PM 28.9 °F 16.9 °F 27.0 °F 92% 29.35 in 2.5 mi SW 17.3 mph - 0.00 in Snow Light Snow
9:02 PM 28.4 °F 15.8 °F 26.6 °F 93% 29.35 in 6.0 mi SW 18.4 mph - 0.00 in Snow Light Snow
9:53 PM 28.9 °F 15.8 °F 27.0 °F 92% 29.37 in 7.0 mi SW 20.7 mph - 0.00 in   Overcast
10:53 PM 28.9 °F 15.4 °F 27.0 °F 92% 29.39 in 2.5 mi SW 21.9 mph - 0.00 in Snow Light Snow
11:53 PM 28.9 °F 15.4 °F 27.0 °F 92% 29.40 in 6.0 mi SW 21.9 mph - 0.00 in Snow Light Snow